When you browse on this site, cookies collect data to enhance your experience and personalize the content and advertising you see.
Visit our Privacy Policy to learn more. By continuing to use the site, you agree to this use of cookies and data.
  • In Schweiz
  • Länderverzeichnis
  • Für 7 Tage
  • Wassertemperatur
  • Wetterkarte
  • Widgets
  • user-avatar
    Anmelden

    Stündliche Wetter Lyubkovo

    Heute, 19 August, Montag

    Zeit Temperatur Niederschläge Wind Luftdruck Luftfeuchtigkeit
    00:00 +14°C° 0 mm 2 m/S 743 mmHg 96%
    01:00 +14°C° 0 mm 2 m/S 743 mmHg 96%
    02:00 +14°C° 0 mm 2 m/S 743 mmHg 96%
    03:00 +13°C° 0 mm 2 m/S 744 mmHg 96%
    04:00 +13°C° 0 mm 1 m/S 744 mmHg 96%
    05:00 +13°C° 0 mm 1 m/S 744 mmHg 95%
    06:00 +15°C° 0 mm 1 m/S 745 mmHg 91%
    07:00 +16°C° 0 mm 1 m/S 745 mmHg 87%
    08:00 +19°C° 0 mm 1 m/S 745 mmHg 83%
    09:00 +19°C° 0 mm 2 m/S 745 mmHg 77%
    10:00 +21°C° 0 mm 2 m/S 746 mmHg 71%
    11:00 +24°C° 0 mm 3 m/S 746 mmHg 65%
    12:00 +24°C° 0 mm 3 m/S 746 mmHg 65%
    13:00 +25°C° 0 mm 3 m/S 746 mmHg 65%
    14:00 +26°C° 0 mm 3 m/S 746 mmHg 64%
    15:00 +25°C° 0 mm 3 m/S 746 mmHg 68%
    16:00 +25°C° 0 mm 3 m/S 746 mmHg 72%
    17:00 +25°C° 0 mm 3 m/S 746 mmHg 75%
    18:00 +22°C° 0 mm 3 m/S 746 mmHg 80%
    19:00 +21°C° 0 mm 3 m/S 747 mmHg 85%
    20:00 +19°C° 0 mm 3 m/S 747 mmHg 89%
    21:00 +19°C° 0 mm 3 m/S 747 mmHg 90%
    22:00 +18°C° 0 mm 3 m/S 747 mmHg 90%
    23:00 +18°C° 0 mm 3 m/S 747 mmHg 91%

    Morgen, 20 August, Dienstag

    Zeit Temperatur Niederschläge Wind Luftdruck Luftfeuchtigkeit
    00:00 +18°C° 0 mm 3 m/S 747 mmHg 91%
    01:00 +17°C° 0 mm 3 m/S 747 mmHg 90%
    02:00 +17°C° 0 mm 3 m/S 747 mmHg 90%
    03:00 +17°C° 0.3 mm 3 m/S 747 mmHg 91%
    04:00 +17°C° 0.3 mm 2 m/S 748 mmHg 93%
    05:00 +16°C° 0.3 mm 2 m/S 748 mmHg 94%
    06:00 +18°C° 0.2 mm 2 m/S 748 mmHg 93%
    07:00 +19°C° 0.2 mm 2 m/S 748 mmHg 91%
    08:00 +20°C° 0.2 mm 2 m/S 748 mmHg 90%
    09:00 +21°C° 0.1 mm 2 m/S 748 mmHg 85%
    10:00 +24°C° 0.1 mm 2 m/S 748 mmHg 81%
    11:00 +25°C° 0.1 mm 2 m/S 749 mmHg 76%
    12:00 +26°C° 1 mm 2 m/S 749 mmHg 77%
    13:00 +26°C° 1 mm 3 m/S 749 mmHg 77%
    14:00 +26°C° 1 mm 3 m/S 749 mmHg 78%
    15:00 +26°C° 0.5 mm 2 m/S 749 mmHg 80%
    16:00 +26°C° 0.5 mm 2 m/S 749 mmHg 82%
    17:00 +26°C° 0.5 mm 2 m/S 749 mmHg 84%
    18:00 +24°C° 0.3 mm 1 m/S 749 mmHg 87%
    19:00 +23°C° 0.3 mm 1 m/S 749 mmHg 90%
    20:00 +21°C° 0.3 mm 1 m/S 749 mmHg 92%
    21:00 +21°C° 0.2 mm 1 m/S 750 mmHg 93%
    22:00 +20°C° 0.2 mm 1 m/S 750 mmHg 94%
    23:00 +20°C° 0.2 mm 1 m/S 750 mmHg 95%

    übermorgen, 21 August, Mittwoch

    Zeit Temperatur Niederschläge Wind Luftdruck Luftfeuchtigkeit
    00:00 +20°C° 0 mm 1 m/S 750 mmHg 95%
    01:00 +19°C° 0 mm 1 m/S 750 mmHg 95%
    02:00 +19°C° 0 mm 1 m/S 750 mmHg 95%
    03:00 +19°C° 0 mm 1 m/S 750 mmHg 95%
    04:00 +19°C° 0 mm 1 m/S 750 mmHg 96%
    05:00 +18°C° 0 mm 1 m/S 750 mmHg 96%
    06:00 +20°C° 0 mm 1 m/S 750 mmHg 94%
    07:00 +21°C° 0 mm 1 m/S 750 mmHg 92%
    08:00 +22°C° 0 mm 1 m/S 750 mmHg 90%
    09:00 +23°C° 0.1 mm 2 m/S 750 mmHg 85%
    10:00 +24°C° 0.1 mm 2 m/S 750 mmHg 80%
    11:00 +26°C° 0.1 mm 3 m/S 750 mmHg 75%
    12:00 +26°C° 0.3 mm 3 m/S 750 mmHg 73%
    13:00 +27°C° 0.3 mm 3 m/S 749 mmHg 71%
    14:00 +27°C° 0.3 mm 3 m/S 749 mmHg 69%
    15:00 +27°C° 0 mm 3 m/S 749 mmHg 71%
    16:00 +27°C° 0 mm 3 m/S 748 mmHg 73%
    17:00 +27°C° 0 mm 2 m/S 748 mmHg 75%
    18:00 +25°C° 0 mm 2 m/S 748 mmHg 79%
    19:00 +23°C° 0 mm 2 m/S 748 mmHg 83%
    20:00 +21°C° 0 mm 2 m/S 748 mmHg 87%
    21:00 +20°C° 0 mm 2 m/S 748 mmHg 87%
    22:00 +20°C° 0 mm 2 m/S 748 mmHg 87%
    23:00 +19°C° 0 mm 2 m/S 748 mmHg 87%

    22 August, Donnerstag

    Zeit Temperatur Niederschläge Wind Luftdruck Luftfeuchtigkeit
    00:00 +19°C° 0.1 mm 2 m/S 748 mmHg 88%
    01:00 +18°C° 0.1 mm 2 m/S 748 mmHg 90%
    02:00 +18°C° 0.1 mm 2 m/S 748 mmHg 91%
    03:00 +18°C° 0.4 mm 2 m/S 748 mmHg 93%
    04:00 +18°C° 0.4 mm 2 m/S 748 mmHg 95%
    05:00 +18°C° 0.4 mm 2 m/S 748 mmHg 96%
    06:00 +17°C° 0.1 mm 3 m/S 748 mmHg 96%
    07:00 +17°C° 0.1 mm 3 m/S 749 mmHg 95%
    08:00 +17°C° 0.1 mm 4 m/S 749 mmHg 94%
    09:00 +17°C° 0 mm 3 m/S 749 mmHg 91%
    10:00 +18°C° 0 mm 3 m/S 749 mmHg 88%
    11:00 +19°C° 0 mm 3 m/S 749 mmHg 85%
    12:00 +19°C° 0 mm 3 m/S 749 mmHg 83%
    13:00 +20°C° 0 mm 3 m/S 749 mmHg 81%
    14:00 +20°C° 0 mm 3 m/S 750 mmHg 79%
    15:00 +20°C° 0 mm 3 m/S 749 mmHg 80%
    16:00 +20°C° 0 mm 3 m/S 749 mmHg 81%
    17:00 +19°C° 0 mm 3 m/S 749 mmHg 81%
    18:00 +18°C° 0 mm 2 m/S 749 mmHg 84%
    19:00 +18°C° 0 mm 2 m/S 750 mmHg 87%
    20:00 +17°C° 0 mm 2 m/S 750 mmHg 90%
    21:00 +16°C° 0 mm 2 m/S 750 mmHg 91%
    22:00 +16°C° 0 mm 2 m/S 750 mmHg 92%
    23:00 +15°C° 0 mm 2 m/S 750 mmHg 93%

    23 August, Freitag

    Zeit Temperatur Niederschläge Wind Luftdruck Luftfeuchtigkeit
    00:00 +15°C° 0 mm 2 m/S 750 mmHg 93%
    01:00 +15°C° 0 mm 2 m/S 750 mmHg 93%
    02:00 +14°C° 0 mm 2 m/S 750 mmHg 93%
    03:00 +14°C° 0 mm 2 m/S 750 mmHg 93%
    04:00 +14°C° 0 mm 2 m/S 750 mmHg 93%
    05:00 +14°C° 0 mm 2 m/S 750 mmHg 93%
    06:00 +15°C° 0 mm 2 m/S 750 mmHg 89%
    07:00 +16°C° 0 mm 2 m/S 750 mmHg 85%
    08:00 +18°C° 0 mm 2 m/S 750 mmHg 80%
    09:00 +19°C° 0 mm 2 m/S 750 mmHg 75%
    10:00 +20°C° 0 mm 2 m/S 750 mmHg 69%
    11:00 +21°C° 0 mm 2 m/S 750 mmHg 63%
    12:00 +22°C° 0.1 mm 3 m/S 750 mmHg 62%
    13:00 +22°C° 0.1 mm 3 m/S 750 mmHg 61%
    14:00 +22°C° 0.1 mm 3 m/S 750 mmHg 61%
    15:00 +21°C° 0.3 mm 3 m/S 750 mmHg 67%
    16:00 +20°C° 0.3 mm 3 m/S 750 mmHg 73%
    17:00 +19°C° 0.3 mm 2 m/S 750 mmHg 79%
    18:00 +18°C° 0 mm 2 m/S 750 mmHg 81%
    19:00 +16°C° 0 mm 3 m/S 751 mmHg 83%
    20:00 +13°C° 0 mm 3 m/S 751 mmHg 86%
    21:00 +13°C° 0 mm 3 m/S 751 mmHg 88%
    22:00 +12°C° 0 mm 3 m/S 751 mmHg 90%
    23:00 +12°C° 0 mm 3 m/S 751 mmHg 92%

    24 August, Samstag

    Zeit Temperatur Niederschläge Wind Luftdruck Luftfeuchtigkeit
    00:00 +11°C° 0 mm 3 m/S 751 mmHg 93%
    01:00 +11°C° 0 mm 3 m/S 752 mmHg 94%
    02:00 +10°C° 0 mm 3 m/S 752 mmHg 95%
    03:00 +10°C° 0 mm 2 m/S 752 mmHg 95%
    04:00 +10°C° 0 mm 2 m/S 752 mmHg 96%
    05:00 +9°C° 0 mm 2 m/S 752 mmHg 96%
    06:00 +12°C° 0 mm 2 m/S 752 mmHg 91%
    07:00 +14°C° 0 mm 2 m/S 753 mmHg 86%
    08:00 +15°C° 0 mm 2 m/S 753 mmHg 81%
    09:00 +17°C° 0 mm 2 m/S 753 mmHg 73%
    10:00 +18°C° 0 mm 2 m/S 753 mmHg 65%
    11:00 +20°C° 0 mm 2 m/S 753 mmHg 58%
    12:00 +21°C° 0 mm 2 m/S 753 mmHg 56%
    13:00 +21°C° 0 mm 2 m/S 753 mmHg 54%
    14:00 +23°C° 0 mm 2 m/S 753 mmHg 52%
    15:00 +21°C° 0 mm 2 m/S 753 mmHg 57%
    16:00 +22°C° 0 mm 1 m/S 753 mmHg 62%
    17:00 +22°C° 0 mm 1 m/S 753 mmHg 67%
    18:00 +20°C° 0 mm 1 m/S 753 mmHg 72%
    19:00 +18°C° 0 mm 1 m/S 753 mmHg 76%
    20:00 +15°C° 0 mm 1 m/S 753 mmHg 80%
    21:00 +14°C° 0 mm 1 m/S 753 mmHg 82%
    22:00 +14°C° 0 mm 1 m/S 753 mmHg 85%
    23:00 +13°C° 0 mm 1 m/S 753 mmHg 87%
    Mehr zeigen